Сарыкемер

Казахстан     43°00′27″N   71°30′54″E
темп.,
°C
ветер,
м/с
пор.,
м/с
влажн.,
%
обл.,
%
осадки,
мм/ч
давл.,
гПа
погр.,
м
20 января, ср
ср2000:00+7ю454478 0.0 101858
03:00+5ссз1162100 0.0 101923
06:00+5ю4578100 0.1 102189
09:00+5ю456959 0.0 102367
12:00+11юз484462 0.0 1024662
15:00+10ссв335581 0.0 1023401
18:00+6всв577452 0.0 1024172
21:00+5в4871100 0.0 1022176
21 января, чт
чт2100:00+3ююв2369100 0.0 102030
03:00+3вюв1168100 0.0 101922
06:00+2вюв1157100 0.0 101623
09:00+2ююв114599 0.0 101326
12:00+10ю122599 0.0 1010101
15:00+13с0119100 0.0 1008227
18:00+9сз1128100 0.0 100622
21:00+8ююв1227100 0.0 100622
22 января, пт
пт2200:00+8юз61334100 0.0 1006343
03:00+3зсз1284100 0.0 1007119
06:00+2ююз1290100 0.4 1010101
09:00+1зсз81381100 0.6 1016934
12:00−1зсз101651100 0.8 10241338
15:00−2зсз91448100 0.0 10291384
18:00−3з5851100 0.1 10321281
21:00−4з4654100 0.2 1036954
23 января, сб
сб2300:00−4з5852100 0.3 10371144
03:00−5ссв2358100 0.0 1038120
06:00−6вюв226484 0.0 103834
09:00−6з155979 0.0 1040351
12:00−4з574589 0.0 1040790
15:00−1зюз61037100 0.1 10391366
18:00−2ююз4948100 0.8 1039609
21:00−4ююз4678100 1.0 1041244
24 января, вс
вс2400:00−3ююз51069100 1.7 1042372
03:00−3ююз51266100 0.1 1042417
06:00−5ююв127096 0.1 104122
09:00−6вюв127225 0.0 104222
12:00−1св235712 0.0 1040314
15:000всв57580 0.0 1037528
18:00−2всв47780 0.0 1037167
21:00−5в34840 0.0 103678